Location: Estes Par
(40.3770°N, 105.5210°W)
Time: 14:30:45
(UTC-06:00)

Tiangong 2 - Pass Details

Date: 13 October 2017
Orbit: 388 x 392 km, 42.8° (Epoch: 18 October)

Event Time Altitude Azimuth Distance (km) Brightness Sun altitude
Exits shadow 05:25:52 56° 32° (NNE) 467 1.6 -20.8°
Drops below altitude 10° 05:28:38 10° 73° (ENE) 1,417 5.1 -20.3°
Sets 05:30:44 0° 76° (ENE) 2,273 6.6 -19.9°
